15:39
Airports
History
Links
Donate
Help keep this website running!
PayPal
Bitcoin
This page is community maintained. The information is intended for PC simulator navigation or reference.
Always use approved charts for navigation.
SSER
Erechim
Erechim (SSER)
Erechim, Rio Grande do Sul, Brazil (99700)
(C)
Lat/Lng:27° 39' 43" S / 52° 16' 6" W
-27.661945 / -52.268334
Elevation:2498'ft / 761mMSL
ID / ICAO:SSER
Runways:1
Longest:14-32
Asphalt 1,271m / 4,171ft
Controlled:Yes
Nearby Weather09:00 GMT 2017-09-24
Nearby weather at SBPF, Lauro Kurtz located 40.4 nautical miles from SSER
Altimeter: 30.12
Visibility: 6.2 statute miles
Wind: 12 knots (from 170°)
Temp: 17°c / 63°f
Humidity: 88.0%

METAR: SBPF 240900Z 17012KT 9999 SCT009 BKN030 17/15 Q1020

(Powered by phpweather)
Runway 14 / 32
Dimensions:1271.4 x 18m 4171' x 59'ft
Surface:Asphalt
Edge Lights:Low intensity
Runway 14 [A]Runway 32 [B]
Heading:125°TH 305°TH
Lat:
Lng:
27° 39' 31"S
52° 16' 25.01"W
27° 39' 55"S
52° 15' 46.99"W
User Notes and Comments
27° 39' 43" S / 52° 16' 6" W
Distance To
Airport ID:
Nearby Airports
(C) Getulio Vargas 14.8 NM
SSGV SSE 159°
4 Fazenda Coxilha 31.6 NM
SSCX S 185°
4 Fazenda Santa Terezinha 32.9 NM
SIYR SE 145°
(C) Nonoai 35.1 NM
SSNO NW 305°
(C) Concordia 35.8 NM
SSCK NNE 21°
(U) Lauro Kurtz 40.4 NM
SBPF ( WX ) S 185°
(C) Sarandi 42.5 NM
SSXD WSW 238°
VFR Chart
Flight Planning at SkyVector.com